CAT 3

导读

CAT 3是欧洲航天局(ESA)于1981年6月19日8时发射的卫星,该次发射由欧洲阿丽亚娜1型火箭执行,一同入轨的还有欧洲Meteosat F2气象卫星与印度实验通信卫星。作为欧空局早期航天任务的组成部分,CAT 3承载了欧洲空间探索技术验证的使命,是阿丽亚娜火箭初期商业发射尝试中的载荷之一,见证了欧洲联合航天发展的早期历程。

Basic Information
目录编号:
12546
目录名称:
CAT 3
国际标识:
1981-057C
轨道中心:
EARTH
卫星名称:
CAT 3
卫星全名:
--
卫星状态:
在轨 (已飞行16461 天)
发射日期:
1981-06-19 UTC
国别 :
(ESA)
星等 :
--
Orbit Information
数据来源 国际轨道数据
星历时间: 2026-07-14T02:36:02+0800
14小时前
查看轨道信息
半长轴: 15461.458km
偏心率: 0.5716783
轨道倾角: 10.144°
近地点辐角 171.916°
升交点赤经 156.034°
平近点角 204.138°
近地点: 244.34km
远地点: 17922.302km
周期: 318.886分钟
每日圈数: 4.515721
Detailed Information
使用方式:
暂无
2D Orbit Map
3D Orbit Map
Orbit Altitude Analysis Chart
Orbit Inclination Analysis Chart
Orbit Comprehensive Analysis Chart
View Comprehensive Chart